SWR3ZC LSGG-LSZH

Flight info

Callsign SWR3ZC
Flight time 0h 28m
Altitude 17000
Route SOSAL N871 BERSU
Aircraft A333/H-SDE3GHIJ2J3J5M1RVWXY/LB2D1

Departure

Time 2026-05-07 14:20
Airport Geneva International Airport (LSGG)

Arrival

Time 2026-05-07 14:49
Airport Zürich Airport (LSZH)
Time Latitude Longitude Altitude Speed Heading
2026-05-07 13:56 46.22947 6.10450 1397 ft 0 kts 135°
2026-05-07 14:11 46.22949 6.10447 1397 ft 2 kts 135°
2026-05-07 14:11 46.22960 6.10432 1397 ft 2 kts 135°
2026-05-07 14:11 46.22966 6.10422 1397 ft 2 kts 134°
2026-05-07 14:11 46.22973 6.10403 1398 ft 2 kts 99°
2026-05-07 14:12 46.22973 6.10382 1398 ft 2 kts 71°
2026-05-07 14:12 46.22967 6.10366 1398 ft 0 kts 49°
2026-05-07 14:12 46.22962 6.10359 1398 ft 1 kts 44°
2026-05-07 14:12 46.22961 6.10358 1398 ft 0 kts 45°
2026-05-07 14:14 46.22971 6.10371 1398 ft 5 kts 45°
2026-05-07 14:15 46.23003 6.10419 1397 ft 0 kts 46°
2026-05-07 14:15 46.23005 6.10422 1397 ft 3 kts 46°
2026-05-07 14:16 46.23067 6.10477 1396 ft 12 kts 354°
2026-05-07 14:16 46.23127 6.10400 1397 ft 11 kts 320°
2026-05-07 14:16 46.23186 6.10337 1397 ft 9 kts
2026-05-07 14:16 46.23257 6.10434 1395 ft 17 kts 46°
2026-05-07 14:17 46.23349 6.10565 1393 ft 20 kts 45°
2026-05-07 14:17 46.23459 6.10718 1390 ft 23 kts 46°
2026-05-07 14:17 46.23573 6.10883 1388 ft 23 kts 46°
2026-05-07 14:17 46.23687 6.11053 1385 ft 23 kts 46°
2026-05-07 14:18 46.23799 6.11222 1383 ft 23 kts 49°
2026-05-07 14:18 46.23915 6.11387 1380 ft 23 kts 45°
2026-05-07 14:18 46.24027 6.11554 1377 ft 23 kts 45°
2026-05-07 14:18 46.24142 6.11718 1375 ft 23 kts 45°
2026-05-07 14:19 46.24255 6.11887 1373 ft 23 kts 45°
2026-05-07 14:19 46.24337 6.11853 1373 ft 18 kts 255°
2026-05-07 14:19 46.24303 6.11668 1374 ft 21 kts 255°
2026-05-07 14:19 46.24176 6.11438 1377 ft 54 kts 226°
2026-05-07 14:20 46.23739 6.10798 1388 ft 121 kts 226°
2026-05-07 14:20 46.23042 6.09738 1515 ft 161 kts 225°
2026-05-07 14:20 46.22235 6.08555 1960 ft 171 kts 225°
2026-05-07 14:20 46.21400 6.07305 2522 ft 178 kts 236°
2026-05-07 14:21 46.21104 6.05651 3147 ft 174 kts 281°
2026-05-07 14:21 46.21728 6.04214 3639 ft 178 kts 328°
2026-05-07 14:21 46.22951 6.03847 3998 ft 192 kts
2026-05-07 14:21 46.24253 6.04482 4520 ft 200 kts 20°
2026-05-07 14:22 46.26014 6.05366 5345 ft 206 kts 19°
2026-05-07 14:22 46.26890 6.05934 5799 ft 207 kts 31°
2026-05-07 14:22 46.28040 6.07219 6310 ft 218 kts 43°
2026-05-07 14:22 46.29189 6.08792 6714 ft 236 kts 44°
2026-05-07 14:23 46.30427 6.10519 7060 ft 259 kts 44°
2026-05-07 14:23 46.31775 6.12375 7549 ft 277 kts 43°
2026-05-07 14:23 46.33204 6.14318 8219 ft 286 kts 43°
2026-05-07 14:23 46.34660 6.16286 9028 ft 290 kts 43°
2026-05-07 14:24 46.36143 6.18277 9834 ft 295 kts 43°
2026-05-07 14:24 46.37649 6.20254 10513 ft 302 kts 42°
2026-05-07 14:24 46.39267 6.22363 10943 ft 320 kts 42°
2026-05-07 14:24 46.40953 6.24562 11315 ft 338 kts 42°
2026-05-07 14:25 46.42738 6.26924 11650 ft 356 kts 42°
2026-05-07 14:25 46.44593 6.29407 11980 ft 372 kts 42°
2026-05-07 14:25 46.46522 6.31993 12547 ft 381 kts 42°
2026-05-07 14:25 46.48459 6.34590 13247 ft 384 kts 42°
2026-05-07 14:26 46.50411 6.37210 13923 ft 387 kts 42°
2026-05-07 14:26 46.52388 6.39864 14605 ft 391 kts 42°
2026-05-07 14:26 46.54382 6.42563 15270 ft 395 kts 44°
2026-05-07 14:26 46.56015 6.45762 15839 ft 400 kts 64°
2026-05-07 14:27 46.56784 6.49598 16472 ft 402 kts 84°
2026-05-07 14:27 46.56794 6.53650 16883 ft 405 kts 92°
2026-05-07 14:27 46.56654 6.57747 16994 ft 405 kts 93°
2026-05-07 14:27 46.56512 6.61855 16975 ft 405 kts 93°
2026-05-07 14:28 46.56387 6.65907 16973 ft 404 kts 93°
2026-05-07 14:28 46.56276 6.69973 16978 ft 404 kts 93°
2026-05-07 14:28 46.56169 6.74082 16995 ft 404 kts 93°
2026-05-07 14:28 46.56066 6.78146 17007 ft 404 kts 93°
2026-05-07 14:29 46.55963 6.82203 17012 ft 404 kts 92°
2026-05-07 14:29 46.56085 6.86284 17004 ft 404 kts 80°
2026-05-07 14:29 46.56950 6.90130 17001 ft 404 kts 63°
2026-05-07 14:29 46.58479 6.93515 17015 ft 404 kts 51°
2026-05-07 14:30 46.60264 6.96700 17010 ft 404 kts 50°
2026-05-07 14:30 46.62048 6.99822 17013 ft 404 kts 50°
2026-05-07 14:30 46.63828 7.02959 17017 ft 404 kts 50°
2026-05-07 14:30 46.65618 7.06148 17006 ft 404 kts 50°
2026-05-07 14:31 46.67399 7.09344 17000 ft 405 kts 50°
2026-05-07 14:31 46.69152 7.12504 17014 ft 404 kts 50°
2026-05-07 14:31 46.70925 7.15712 17010 ft 405 kts 50°
2026-05-07 14:31 46.72665 7.18864 17005 ft 404 kts 50°
2026-05-07 14:32 46.74438 7.22082 17007 ft 404 kts 50°
2026-05-07 14:32 46.76190 7.25265 17006 ft 404 kts 50°
2026-05-07 14:32 46.77948 7.28462 17003 ft 404 kts 50°
2026-05-07 14:32 46.79697 7.31645 17003 ft 404 kts 50°
2026-05-07 14:33 46.81456 7.34854 17005 ft 404 kts 50°
2026-05-07 14:33 46.83203 7.38044 17000 ft 404 kts 51°
2026-05-07 14:33 46.84964 7.41264 16999 ft 404 kts 50°
2026-05-07 14:33 46.86725 7.44491 17001 ft 404 kts 50°
2026-05-07 14:34 46.88457 7.47670 17001 ft 405 kts 50°
2026-05-07 14:34 46.90216 7.50905 17003 ft 405 kts 50°
2026-05-07 14:34 46.91944 7.54088 17003 ft 405 kts 50°
2026-05-07 14:34 46.93707 7.57340 17003 ft 405 kts 50°
2026-05-07 14:35 46.95446 7.60550 17003 ft 404 kts 50°
2026-05-07 14:35 46.97181 7.63757 17007 ft 404 kts 50°
2026-05-07 14:35 46.98932 7.66996 17004 ft 404 kts 51°
2026-05-07 14:35 47.00689 7.70246 17005 ft 404 kts 51°
2026-05-07 14:36 47.02417 7.73442 17006 ft 404 kts 51°
2026-05-07 14:36 47.04160 7.76670 17008 ft 404 kts 51°
2026-05-07 14:36 47.05889 7.79877 17019 ft 404 kts 51°
2026-05-07 14:36 47.07618 7.83092 17004 ft 404 kts 51°
2026-05-07 14:37 47.09365 7.86343 17014 ft 404 kts 51°
2026-05-07 14:37 47.12764 7.92921 17009 ft 404 kts 56°
2026-05-07 14:37 47.14229 7.96441 17010 ft 404 kts 60°
2026-05-07 14:38 47.15501 8.00118 17011 ft 404 kts 64°
2026-05-07 14:38 47.16693 8.03851 17012 ft 404 kts 65°
2026-05-07 14:38 47.17863 8.07558 16889 ft 404 kts 64°
2026-05-07 14:38 47.19044 8.11294 16633 ft 402 kts 64°
2026-05-07 14:39 47.20247 8.14976 16376 ft 400 kts 60°
2026-05-07 14:39 47.21991 8.18081 16107 ft 396 kts 37°
2026-05-07 14:39 47.24392 8.20025 15853 ft 392 kts 16°
2026-05-07 14:39 47.27033 8.20613 15583 ft 387 kts 356°
2026-05-07 14:40 47.29668 8.19844 15262 ft 382 kts 336°
2026-05-07 14:40 47.32019 8.18158 14918 ft 379 kts 330°
2026-05-07 14:40 47.34332 8.16350 14464 ft 376 kts 330°
2026-05-07 14:40 47.36629 8.14573 13970 ft 374 kts 330°
2026-05-07 14:41 47.38942 8.12825 13468 ft 371 kts 331°
2026-05-07 14:41 47.41305 8.11446 12979 ft 370 kts 346°
2026-05-07 14:41 47.43884 8.11250 12724 ft 373 kts
2026-05-07 14:41 47.46360 8.12376 12472 ft 376 kts 25°
2026-05-07 14:42 47.48654 8.14247 12223 ft 375 kts 28°
2026-05-07 14:42 47.50897 8.16152 11972 ft 373 kts 28°
2026-05-07 14:42 47.53142 8.18054 11383 ft 373 kts 28°
2026-05-07 14:42 47.55406 8.19952 10507 ft 379 kts 28°
2026-05-07 14:43 47.57631 8.21808 9891 ft 365 kts 28°
2026-05-07 14:43 47.59794 8.23608 9108 ft 352 kts 28°
2026-05-07 14:43 47.61880 8.25338 8320 ft 340 kts 28°
2026-05-07 14:43 47.63840 8.27169 7508 ft 329 kts 41°
2026-05-07 14:44 47.65100 8.29861 6737 ft 318 kts 71°
2026-05-07 14:44 47.65264 8.33028 6165 ft 302 kts 102°
2026-05-07 14:44 47.64360 8.35688 5650 ft 288 kts 134°
2026-05-07 14:44 47.62761 8.37295 5186 ft 274 kts 153°
2026-05-07 14:45 47.61067 8.38435 4718 ft 264 kts 156°
2026-05-07 14:45 47.59402 8.39478 4251 ft 256 kts 156°
2026-05-07 14:45 47.57838 8.40682 3886 ft 251 kts 145°
2026-05-07 14:45 47.56495 8.42221 3553 ft 236 kts 136°
2026-05-07 14:46 47.55341 8.43837 3251 ft 224 kts 134°
2026-05-07 14:46 47.54263 8.45368 2965 ft 211 kts 135°
2026-05-07 14:46 47.53213 8.46808 2777 ft 196 kts 136°
2026-05-07 14:46 47.52249 8.48112 2509 ft 181 kts 137°
2026-05-07 14:47 47.51360 8.49318 2252 ft 168 kts 137°
2026-05-07 14:47 47.50538 8.50438 2014 ft 155 kts 136°
2026-05-07 14:47 47.49757 8.51505 1788 ft 151 kts 136°
2026-05-07 14:47 47.49000 8.52538 1600 ft 149 kts 136°
2026-05-07 14:48 47.48248 8.53556 1462 ft 146 kts 136°
2026-05-07 14:48 47.47521 8.54553 1389 ft 128 kts 137°
2026-05-07 14:48 47.46996 8.55263 1390 ft 78 kts 137°
2026-05-07 14:48 47.46676 8.55696 1395 ft 57 kts 137°
2026-05-07 14:49 47.46405 8.55944 1401 ft 28 kts 167°
2026-05-07 14:49 47.46232 8.56009 1404 ft 20 kts 143°
2026-05-07 14:49 47.46135 8.56097 1406 ft 15 kts 137°
2026-05-07 14:49 47.46046 8.56218 1409 ft 19 kts 136°
2026-05-07 14:50 47.45936 8.56313 1411 ft 17 kts 181°
2026-05-07 14:50 47.45834 8.56297 1412 ft 11 kts 186°
2026-05-07 14:50 47.45750 8.56283 1412 ft 12 kts 186°
2026-05-07 14:50 47.45663 8.56270 1413 ft 12 kts 185°
2026-05-07 14:51 47.45571 8.56257 1413 ft 13 kts 185°
2026-05-07 14:51 47.45485 8.56217 1413 ft 13 kts 241°
2026-05-07 14:51 47.45483 8.56093 1411 ft 6 kts 275°
2026-05-07 14:51 47.45451 8.56068 1410 ft 7 kts 184°
2026-05-07 14:52 47.45414 8.56062 1410 ft 2 kts 186°
2026-05-07 14:52 47.45409 8.56062 1410 ft 0 kts 187°